DIAMOND RED (42783 NORAD) Tracking and Keplerian Element Data

This shows tracking and keplerian element data for the satellite.

Feedback or suggestion? Click here.




ElementValue
Catalog42783
NameDIAMOND RED
Epoch Orbit9673
Epoch Day80.8322991
Epoch Year2019
RAAN140.3723
Inclination97.3625
Eccentricity0.0012415
Argument of Perigee175.0591
Mean Anonmoly185.077
Mean Motion15.2200346
Decay Rate9.8E-06
L11 42783U 17036U 19080.83229910 .00000980 00000-0 45880-4 0 9999
L22 42783 97.3625 140.3723 0012415 175.0591 185.0770 15.22003460 96735

Live tracking and technical data element details for DIAMOND RED (NORAD 42783). DIAMOND RED can be tracked NOW for your location showing map with azimuth and elevation plus other details from your city location.

Track the satellite on the map from your city or location and see movement details for azimuth, elevation, latitude, longitude, range, height, and movement on the map or in text.







IsCatalogInMostPopularTable: catalog: 42783, numindb: 322
Update: records affected: 1



GetName: 42783 DIAMOND RED

Hit Count: updated at: Sat, 23 Mar 2019 02:53:26 GMT